Weather in Skarlakhta

Russia / Arkhangel'skaya Oblast'     62°40′33″N   38°47′23″E
temp.,
°C
wind,
m/s
gust,
m/s
humid.,
%
clouds,
%
prec.,
mm/h
press.,
hPa
HPBL,
m
23 april, fri
fri2300:00+3sw3886100 0.0 1011551
03:00+1s24936 0.0 101284
06:00+2se26928 0.0 1012156
09:00+7se497559 0.0 1011432
12:00+12sse696173 0.0 10101160
15:00+13sse61065100 0.8 10091381
18:00+12sse61169100 0.4 10081251
21:00+10sse61479100 1.0 10091133
24 april, sat
sat2400:00+5sw3789100 0.4 1011469
03:00+5sw1389100 0.7 1011502
06:00+5ene2494100 0.3 1011268
09:00+8se41188100 0.4 1009706
12:00+13se613595 0.4 10071774
15:00+14se6125483 1.4 10061943
18:00+12se6136077 0.6 10051520
21:00+10ese6136972 0.8 10061048
25 april, sun
sun2500:00+8ese512755 0.0 1005695
03:00+6ese41179100 0.0 1005626
06:00+6e4984100 0.0 1004552
09:00+7e4774100 0.0 1004811
12:00+7ene4781100 0.0 1004991
15:00+5ene4794100 0.3 1004906
18:00+5ene3795100 0.9 1003899
21:00+5ene3892100 1.4 1003779
26 april, mon
mon2600:00+4ne2596100 0.1 1002311
03:00+4ne3695100 0.2 1002581
06:00+4nne2598100 0.5 1002758
09:00+4ene2496100 0.9 1002597
12:00+4nne2396100 0.2 1002760
15:00+4ne1394100 0.8 1003783
18:00+4nw1297100 0.8 1003122
21:00+4nnw2398100 1.7 1002284
27 april, tue
tue2700:00+3wnw1399100 2.1 1002245
03:00+3nw1298100 2.6 1001110
06:00+3nnw2399100 1.0 1001642
09:00+3nnw2497100 1.9 1002565
12:00+3nnw2598100 0.4 1003423
15:00+3n2798100 1.0 1004523
18:00+4n3889100 0.3 1004708
21:00+2nw488994 0.4 1006545